Wetbulb
49.35 49.54 49.34 50.08 49.15 49.29 49.56 49.02 48.66 48.41 48.59 48.30 48.32 48.75 49.01 49.35 49.48 49.60 49.73 50.50 50.33 51.13 52.16 53.02 53.84 53.48 53.72 47.79 45.24 51.49 58.49 60.12 54.47 52.18 49.82 49.91 49.35 49.03 48.10 49.70 49.99 48.70 49.24 50.60 51.00 54.99 58.54
50.18 49.34 48.94 48.63 48.31 48.23 48.39 48.04 47.83 47.81 48.11 47.76 48.07 48.40 48.59 48.63 48.80 49.07 49.24 50.14 50.38 51.31 52.27 53.07 53.10 52.99 50.95 42.37 48.18 53.43 53.12 52.97 53.15 51.89 50.21 50.37 49.18 50.08 48.70 49.34 49.13 50.44 49.37 51.99 54.54 56.53 57.56
48.57 48.31 47.80 47.39 47.23 47.37 47.50 47.17 47.16 46.83 47.46 47.67 47.92 47.78 47.96 48.02 48.29 48.38 48.88 49.71 50.61 51.82 53.63 53.58 53.01 53.23 48.28 46.20 51.68 53.81 52.49 52.73 51.70 51.53 48.98 50.15 51.13 49.52 49.45 48.03 50.48 51.31 48.91 51.22 53.47 56.21 55.30
47.73 47.94 47.75 47.19 46.94 46.73 46.89 46.92 46.93 46.86 46.67 47.16 47.58 47.19 47.34 47.47 47.54 48.22 49.08 50.41 50.55 52.54 52.99 53.05 53.16 52.71 45.99 51.48 53.49 51.63 52.31 52.33 53.30 52.98 50.86 51.49 51.68 50.24 49.35 50.41 48.61 48.24 49.99 46.17 51.36 54.38 55.04
46.83 46.73 47.16 46.83 46.64 46.50 46.34 46.68 46.87 46.83 46.68 46.70 46.61 46.65 46.87 47.57 47.98 48.40 49.22 50.52 51.13 53.84 53.14 53.41 52.46 49.41 44.58 53.38 49.75 51.69 52.35 49.91 51.36 51.67 52.00 50.38 50.39 48.76 48.83 46.32 45.27 46.76 44.06 45.70 47.55 53.36 52.69
46.69 47.19 46.79 46.75 46.67 46.32 46.28 46.02 45.73 45.71 45.98 45.89 46.08 46.12 46.33 47.04 47.41 47.69 48.96 50.33 51.79 53.22 53.58 53.20 51.37 45.52 47.85 45.58 50.30 51.24 52.83 52.02 49.67 49.65 48.59 48.04 47.53 45.50 45.65 44.85 41.03 44.05 43.71 46.51 46.02 48.94 51.00
46.25 45.97 46.83 46.05 46.14 46.25 46.48 46.12 45.62 45.13 45.06 45.24 45.40 45.57 45.28 46.34 46.93 47.74 49.61 53.50 50.04 48.68 49.68 47.46 45.26 44.69 44.72 49.91 51.78 49.72 51.32 50.19 49.70 47.98 44.04 46.36 42.88 41.19 44.16 45.69 46.41 46.75 45.83 45.12 47.90 49.09 48.80
45.78 45.44 45.85 45.94 46.05 46.11 46.05 45.98 45.44 45.28 45.13 44.95 44.86 44.98 44.79 45.27 46.08 47.51 51.01 46.27 43.48 44.66 42.34 48.42 47.90 48.43 49.91 49.88 45.29 48.23 51.00 45.89 45.57 42.29 45.04 43.05 40.30 44.51 45.06 45.19 44.50 44.69 44.54 45.63 46.43 48.33 48.19
45.16 45.44 45.62 45.75 45.87 45.77 45.87 45.60 45.10 44.92 44.81 44.93 44.90 45.33 44.87 45.18 46.10 47.15 47.13 43.96 47.54 47.51 42.12 44.94 47.19 46.67 47.31 49.63 45.00 46.36 48.82 47.47 44.51 42.26 42.33 40.54 42.20 43.37 43.05 42.54 41.87 43.38 43.60 45.18 44.99 46.62 47.95
45.17 45.35 45.48 45.71 45.37 45.48 45.28 45.37 45.24 45.02 44.82 45.55 46.06 45.92 45.50 45.91 44.11 44.46 47.12 46.23 47.60 48.20 40.23 40.18 42.41 46.57 47.57 47.91 43.94 49.70 49.87 47.14 43.95 41.54 42.62 42.02 44.39 41.44 41.15 40.70 42.51 40.09 45.15 44.92 46.13 44.57 41.07
45.82 45.96 45.47 45.51 45.36 45.15 44.97 44.70 44.81 45.03 44.58 45.18 45.91 45.60 44.28 45.35 44.22 41.69 43.23 46.84 48.50 47.93 29.51 39.00 43.53 51.51 48.34 44.43 44.00 45.44 49.98 47.03 42.52 42.12 42.33 40.36 40.88 40.86 39.90 41.40 43.32 40.97 45.19 44.54 45.35 44.92 43.61
45.24 45.30 45.66 45.35 45.03 44.80 44.94 44.62 44.42 44.29 44.70 46.02 45.77 43.84 44.70 46.31 47.20 45.25 47.31 47.25 49.22 38.03 27.62 36.67 43.83 43.19 42.79 43.89 43.38 45.07 45.11 47.64 47.06 43.08 43.13 42.28 44.39 42.87 42.64 43.63 43.26 44.40 43.08 43.91 45.08 44.25 37.97
44.88 44.77 44.94 45.02 44.65 44.56 44.66 44.55 44.25 44.23 44.95 45.72 45.40 42.85 44.66 46.20 41.73 48.04 47.39 48.00 36.71 30.77 38.23 35.95 38.36 41.51 41.53 41.21 41.27 42.80 41.94 41.19 39.77 36.19 37.01 40.68 41.25 43.93 44.11 41.17 43.49 42.63 41.49 36.37 35.55 36.33 36.28
44.50 44.45 44.54 44.67 44.62 44.50 44.50 44.42 44.43 45.11 45.35 45.33 44.16 41.75 43.98 45.39 46.74 48.65 46.88 41.23 27.84 32.07 33.62 39.58 38.72 39.92 38.01 40.65 41.27 41.63 40.82 39.41 42.75 41.38 38.62 36.30 34.63 41.20 44.03 42.13 40.63 40.79 41.99 37.18 30.51 33.08 37.44
44.90 44.30 44.08 44.39 44.45 44.29 44.08 44.06 44.42 45.05 45.04 44.82 42.32 44.52 44.05 44.55 46.36 48.68 44.59 33.24 30.21 33.36 35.31 34.84 38.00 36.44 36.87 38.83 39.22 39.95 40.61 39.97 42.07 42.82 36.86 36.56 36.02 42.43 43.07 44.14 44.00 40.87 39.01 44.75 39.97 41.16 38.20
44.74 44.48 44.00 43.80 43.90 44.02 43.78 43.85 43.80 43.71 44.39 44.36 38.40 40.69 40.77 45.69 47.11 46.76 40.58 30.36 33.25 35.88 36.50 36.77 31.95 36.94 34.14 37.10 37.04 37.86 39.28 41.32 41.32 43.75 44.88 40.76 35.04 41.39 42.58 44.26 44.35 42.76 44.06 38.14 40.38 31.96 31.71
44.27 44.20 44.08 43.64 43.78 43.70 43.67 43.57 43.79 43.31 43.52 43.24 38.66 37.60 41.58 44.60 48.90 42.24 32.13 30.47 32.00 34.90 36.33 34.18 32.99 32.60 35.10 34.76 36.43 37.15 37.40 39.47 40.65 41.92 44.11 42.59 39.73 38.62 41.80 40.29 39.63 40.48 39.37 40.90 41.64 39.58 34.95
43.96 44.04 43.74 43.62 43.70 43.57 43.51 43.36 43.58 43.18 42.80 40.38 36.41 32.61 41.13 44.13 34.89 33.43 29.70 29.21 32.28 32.59 36.08 34.67 36.19 35.26 33.65 34.89 34.48 35.59 35.72 37.99 39.54 42.53 39.38 43.18 40.30 35.39 38.31 43.30 44.78 43.74 41.46 41.51 36.84 35.33 39.49
43.87 43.65 43.70 43.68 43.33 43.10 43.10 43.08 43.08 42.82 42.41 37.70 31.92 33.80 40.51 41.16 27.40 27.62 29.42 28.91 30.72 30.34 31.64 31.17 30.31 31.85 32.63 31.51 30.54 35.80 36.43 40.64 37.15 38.69 37.14 40.64 38.17 32.62 35.36 40.10 42.74 40.35 42.41 42.98 42.54 41.91 37.54
43.60 43.53 43.45 43.42 43.17 42.97 42.88 42.73 42.64 42.52 42.04 38.72 32.64 27.16 31.81 32.85 31.52 26.77 23.62 25.51 25.75 31.53 29.88 30.31 29.35 31.53 30.08 29.85 33.36 31.01 32.83 35.48 35.91 37.09 37.30 40.55 38.91 36.40 32.57 36.64 40.51 37.98 40.22 42.35 42.03 37.89 38.64
42.82 43.35 43.19 43.22 43.14 42.87 42.54 42.35 42.19 41.94 41.18 38.54 32.61 26.80 27.65 24.00 25.34 26.35 26.46 24.94 23.75 22.84 28.52 30.11 28.31 26.77 24.81 24.02 27.08 28.81 29.87 30.93 34.15 35.10 35.98 35.50 32.89 37.86 38.89 40.02 40.39 39.74 39.58 40.39 39.67 41.22 38.19
42.43 42.82 42.94 42.95 43.03 42.78 42.60 42.29 41.65 41.25 40.25 37.32 30.70 28.69 31.21 28.17 27.06 25.59 24.38 22.74 22.23 23.43 23.61 23.32 23.64 25.39 25.06 21.80 24.75 23.37 27.24 27.36 27.50 31.80 30.94 33.47 29.90 34.71 33.61 38.55 39.31 37.49 39.76 40.59 40.92 41.44 41.94
42.13 42.35 42.54 42.65 42.75 42.65 42.44 41.99 41.35 40.64 39.71 36.17 37.18 35.49 31.31 25.92 25.02 23.80 24.32 23.43 23.28 25.46 25.73 26.57 25.61 24.72 23.94 26.21 28.33 29.36 30.32 29.47 29.54 28.09 27.33 27.79 29.77 30.20 28.72 37.42 37.40 33.30 38.18 39.59 40.53 42.39 42.44
41.96 42.01 42.11 42.14 42.42 42.34 42.12 41.89 41.49 40.40 39.68 38.50 35.90 34.97 28.38 23.22 25.20 24.30 25.19 25.54 24.26 25.39 23.48 26.65 27.94 25.20 28.59 33.01 32.31 31.62 31.02 29.90 29.87 30.29 31.90 27.75 27.95 28.94 27.45 33.22 25.08 38.17 43.90 43.19 41.22 42.24 43.92
41.83 41.85 41.94 42.04 42.04 42.05 41.98 41.90 41.49 41.08 39.78 39.58 37.82 34.04 30.29 23.22 25.40 25.42 25.69 25.72 26.60 27.46 26.14 26.17 28.34 30.71 33.01 29.06 23.74 21.55 24.48 26.69 28.60 30.90 30.93 31.62 28.78 25.37 24.08 27.39 33.93 38.38 41.20 41.22 40.17 40.04 44.73
41.62 41.67 41.77 41.78 41.57 41.60 41.71 41.68 41.71 41.43 41.15 40.61 39.58 39.58 32.90 26.67 24.17 27.48 25.37 26.32 23.68 23.86 25.13 27.26 31.47 33.78 31.14 25.90 21.31 14.08 14.83 22.25 22.30 27.41 34.89 32.20 31.50 29.08 27.17 23.38 22.93 36.98 43.06 45.06 44.93 36.58 45.68
41.45 41.60 41.53 41.45 41.31 41.37 41.43 41.61 41.56 41.47 41.65 41.53 38.56 40.58 34.98 26.98 29.90 29.43 25.44 24.07 27.84 26.43 23.18 26.18 27.80 27.26 30.28 22.53 17.72 15.97 16.35 23.72 18.07 21.99 27.07 28.19 26.31 23.35 26.60 25.15 31.70 40.80 43.65 45.60 34.72 37.99 46.61
41.30 41.39 41.37 41.28 41.29 41.27 41.20 41.34 41.42 41.27 41.28 41.25 38.41 40.75 35.74 29.77 30.62 31.81 31.59 27.78 27.60 27.31 22.76 27.03 24.63 26.22 24.22 19.33 19.21 19.76 18.88 22.49 19.86 24.24 23.72 23.47 25.43 23.79 26.04 25.18 23.32 41.98 42.52 37.89 39.64 44.37 42.45
41.26 41.17 41.14 41.04 41.12 41.05 41.06 41.02 41.16 41.09 41.01 41.07 36.09 40.29 39.72 32.37 31.38 35.63 35.03 35.29 33.72 32.61 28.92 29.27 25.72 25.44 26.14 21.76 22.52 22.62 18.48 20.49 19.24 14.74 28.03 21.87 25.48 21.87 23.22 30.41 40.46 43.66 40.72 41.29 39.80 38.53 39.71
MSLP
1030.51 1030.17 1029.79 1029.38 1029.01 1028.61 1028.15 1027.71 1027.23 1026.76 1026.15 1025.55 1024.79 1024.04 1023.36 1022.69 1022.04 1021.33 1020.69 1020.05 1019.42 1018.72 1018.17 1017.77 1017.51 1017.19 1016.12 1014.23 1011.66 1011.54 1011.75 1011.81 1011.30 1010.95 1010.17 1009.56 1008.70 1007.86 1006.87 1006.27 1006.50 1006.11 1006.29 1007.12 1007.43 1007.70 1007.73
1030.75 1030.50 1030.26 1029.91 1029.48 1028.94 1028.51 1028.05 1027.45 1026.97 1026.34 1025.60 1024.83 1024.07 1023.39 1022.66 1021.85 1021.04 1020.26 1019.44 1018.73 1018.04 1017.50 1017.19 1017.19 1017.11 1015.77 1013.21 1011.45 1011.66 1011.54 1011.27 1010.92 1010.43 1009.76 1009.53 1008.65 1008.17 1007.37 1006.71 1006.27 1005.91 1006.69 1007.26 1007.74 1008.36 1008.89
1031.16 1030.84 1030.51 1030.22 1029.78 1029.25 1028.75 1028.11 1027.62 1027.04 1026.52 1025.63 1024.94 1024.09 1023.34 1022.64 1021.76 1020.81 1019.92 1019.00 1018.24 1017.43 1016.72 1016.47 1016.76 1016.43 1014.97 1012.10 1011.44 1011.47 1011.42 1010.77 1010.71 1010.39 1009.64 1009.50 1009.25 1008.77 1007.64 1006.77 1006.84 1006.84 1006.92 1007.72 1007.98 1008.35 1008.82
1031.50 1031.12 1030.68 1030.42 1030.01 1029.44 1028.81 1028.32 1027.60 1027.02 1026.37 1025.66 1024.94 1024.06 1023.27 1022.44 1021.48 1020.52 1019.48 1018.42 1017.63 1016.96 1016.40 1016.34 1016.53 1015.80 1013.01 1011.68 1011.58 1011.33 1010.87 1010.54 1010.56 1010.38 1010.23 1009.79 1009.54 1008.89 1008.14 1007.42 1006.90 1006.49 1006.49 1006.62 1007.63 1008.26 1009.15
1031.94 1031.51 1031.05 1030.57 1030.09 1029.60 1029.04 1028.43 1027.80 1027.10 1026.50 1025.68 1024.80 1023.99 1023.12 1022.25 1021.18 1019.99 1018.81 1017.79 1017.10 1016.64 1016.49 1016.47 1016.01 1015.12 1011.93 1011.54 1011.19 1010.60 1010.47 1010.01 1009.97 1010.07 1009.95 1010.01 1009.45 1008.42 1007.87 1007.01 1006.27 1005.56 1004.76 1005.52 1007.17 1008.06 1008.80
1032.24 1031.89 1031.38 1030.85 1030.34 1029.79 1029.21 1028.62 1027.99 1027.27 1026.46 1025.60 1024.77 1023.90 1023.00 1021.99 1020.81 1019.56 1018.31 1017.12 1016.74 1016.67 1016.26 1015.93 1015.46 1014.91 1011.82 1010.77 1010.70 1010.53 1010.31 1010.18 1009.76 1009.78 1009.61 1009.50 1008.90 1007.93 1007.08 1005.95 1003.98 1004.15 1004.57 1004.60 1005.89 1007.86 1008.34
1032.69 1032.13 1031.74 1031.11 1030.48 1029.89 1029.28 1028.72 1028.13 1027.42 1026.60 1025.67 1024.76 1023.83 1022.87 1021.76 1020.59 1019.35 1017.80 1016.32 1016.47 1016.13 1015.40 1013.77 1012.99 1012.31 1011.37 1011.07 1010.96 1010.01 1009.88 1009.95 1009.75 1009.51 1008.85 1008.90 1008.23 1006.62 1005.95 1005.80 1005.04 1004.14 1004.16 1004.41 1005.25 1007.10 1007.94
1032.95 1032.37 1031.88 1031.29 1030.64 1030.04 1029.41 1028.79 1028.16 1027.43 1026.57 1025.63 1024.68 1023.60 1022.68 1021.58 1020.48 1019.23 1017.65 1017.27 1018.70 1019.04 1015.94 1013.27 1012.76 1012.17 1011.84 1011.79 1010.74 1009.81 1009.79 1009.46 1009.37 1008.74 1008.67 1008.85 1007.37 1006.78 1006.57 1005.94 1005.92 1005.34 1004.39 1004.09 1006.07 1007.96 1008.15
1033.11 1032.54 1031.97 1031.37 1030.78 1030.15 1029.51 1028.87 1028.23 1027.46 1026.61 1025.60 1024.55 1023.38 1022.36 1021.20 1020.24 1019.34 1018.68 1019.08 1019.31 1019.03 1016.96 1012.68 1012.13 1011.53 1011.15 1011.58 1010.27 1009.22 1009.46 1008.92 1008.77 1008.49 1008.29 1007.61 1007.00 1007.61 1007.24 1006.51 1006.03 1005.24 1004.60 1004.39 1005.81 1008.07 1008.25
1033.20 1032.66 1032.09 1031.47 1030.89 1030.29 1029.66 1028.94 1028.19 1027.40 1026.54 1025.52 1024.40 1023.16 1021.96 1020.67 1020.17 1019.69 1018.97 1019.47 1019.22 1019.30 1016.15 1012.20 1011.46 1010.61 1010.98 1010.54 1009.70 1009.11 1009.03 1008.82 1008.76 1008.16 1008.23 1007.85 1007.32 1007.68 1007.21 1006.33 1005.88 1004.72 1004.99 1005.20 1005.11 1007.27 1007.27
1033.21 1032.70 1032.19 1031.54 1030.99 1030.34 1029.70 1028.99 1028.22 1027.39 1026.50 1025.38 1024.31 1022.97 1021.92 1021.27 1020.53 1019.55 1019.84 1019.60 1019.27 1018.93 1015.11 1011.81 1010.74 1010.42 1010.26 1009.88 1009.06 1008.72 1008.78 1008.81 1008.05 1008.27 1008.59 1007.30 1007.66 1007.41 1006.71 1005.76 1006.16 1004.87 1004.85 1005.27 1005.45 1006.37 1006.78
1033.31 1032.78 1032.20 1031.66 1031.06 1030.39 1029.69 1029.00 1028.23 1027.42 1026.42 1025.10 1023.97 1022.85 1021.89 1020.90 1020.45 1020.44 1020.15 1019.54 1018.84 1017.08 1013.62 1011.17 1010.52 1010.18 1010.05 1009.51 1008.68 1008.78 1008.90 1008.94 1008.50 1008.20 1008.16 1007.51 1007.64 1007.52 1006.48 1006.17 1006.39 1005.90 1005.45 1005.44 1005.55 1005.93 1005.61
1033.38 1032.86 1032.32 1031.74 1031.12 1030.44 1029.73 1029.00 1028.19 1027.33 1026.34 1025.03 1023.85 1022.93 1021.88 1021.49 1021.32 1020.70 1020.18 1018.70 1017.39 1015.47 1012.92 1012.05 1011.24 1010.77 1009.95 1009.04 1008.66 1008.38 1008.31 1008.28 1007.72 1007.78 1007.28 1007.24 1006.93 1007.03 1007.20 1006.25 1006.05 1005.90 1005.15 1004.58 1004.67 1004.28 1002.94
1033.38 1032.88 1032.37 1031.81 1031.19 1030.45 1029.70 1028.97 1028.18 1027.29 1026.31 1025.20 1023.77 1023.01 1022.45 1021.68 1021.45 1020.69 1019.61 1017.94 1016.97 1015.26 1014.26 1013.51 1012.53 1011.36 1010.04 1009.14 1008.62 1008.13 1007.92 1007.45 1007.54 1007.02 1006.52 1005.87 1005.50 1005.68 1005.83 1005.67 1004.75 1004.65 1004.17 1003.15 1002.86 1002.64 1001.97
1033.34 1032.86 1032.38 1031.82 1031.22 1030.56 1029.80 1029.01 1028.15 1027.17 1026.05 1024.99 1023.59 1022.60 1021.69 1021.53 1021.31 1020.51 1018.94 1017.97 1017.42 1017.03 1016.78 1015.13 1013.03 1011.51 1010.13 1009.86 1009.52 1008.60 1007.95 1007.44 1006.94 1007.17 1006.86 1005.64 1005.20 1005.02 1005.01 1005.18 1005.05 1004.08 1003.70 1003.09 1002.60 1002.75 1002.10
1033.29 1032.78 1032.31 1031.81 1031.28 1030.73 1030.05 1029.22 1028.38 1027.43 1026.29 1025.08 1023.79 1022.69 1021.81 1021.79 1021.07 1019.91 1018.79 1019.04 1018.82 1019.10 1018.37 1016.58 1014.76 1013.35 1011.93 1011.11 1010.61 1009.48 1008.49 1008.58 1007.68 1007.26 1007.32 1006.35 1005.67 1005.31 1004.82 1005.05 1004.26 1003.75 1003.27 1003.47 1002.99 1002.32 1001.17
1033.27 1032.73 1032.27 1031.80 1031.28 1030.81 1030.26 1029.60 1028.71 1027.80 1026.75 1025.38 1023.95 1022.21 1022.54 1021.94 1020.67 1019.49 1020.20 1020.62 1020.63 1020.69 1019.88 1018.22 1016.71 1015.54 1014.03 1013.41 1012.50 1011.18 1009.83 1010.87 1010.65 1009.36 1008.13 1007.06 1006.53 1005.54 1005.13 1004.01 1003.10 1003.32 1003.12 1002.88 1002.71 1002.41 1001.16
1033.25 1032.72 1032.22 1031.75 1031.31 1030.87 1030.39 1029.81 1029.18 1028.40 1027.30 1025.55 1024.74 1023.44 1023.56 1022.23 1021.63 1022.42 1022.33 1022.71 1022.47 1021.35 1020.77 1019.85 1018.84 1017.57 1016.53 1015.61 1014.31 1013.08 1012.09 1012.63 1013.02 1011.35 1009.33 1007.87 1006.68 1005.54 1004.40 1003.75 1003.06 1002.38 1002.20 1002.33 1002.01 1001.69 1001.11
1033.19 1032.66 1032.19 1031.72 1031.32 1030.90 1030.45 1029.97 1029.42 1028.94 1028.25 1027.02 1025.98 1025.35 1024.48 1022.88 1023.59 1024.04 1023.93 1023.34 1022.96 1022.37 1021.86 1021.44 1020.72 1020.27 1019.31 1017.95 1016.44 1014.58 1014.29 1014.10 1014.68 1013.39 1012.70 1011.07 1007.98 1006.40 1004.94 1004.13 1003.46 1002.61 1002.06 1001.75 1002.00 1001.99 1000.66
1032.97 1032.54 1032.13 1031.70 1031.34 1030.92 1030.48 1030.07 1029.63 1029.25 1028.84 1027.95 1027.00 1026.29 1025.87 1025.82 1026.11 1025.45 1025.08 1024.14 1023.59 1023.44 1023.19 1022.88 1022.60 1021.50 1020.52 1019.02 1018.19 1017.02 1016.35 1016.01 1016.05 1015.25 1014.36 1012.52 1009.65 1007.08 1004.88 1003.08 1002.90 1002.67 1002.17 1001.84 1001.63 1001.45 1000.38
1032.74 1032.37 1031.96 1031.46 1031.08 1030.77 1030.45 1030.01 1029.76 1029.59 1029.23 1028.33 1028.17 1028.07 1028.22 1027.01 1026.84 1026.30 1025.74 1025.26 1024.49 1024.38 1024.19 1023.61 1023.07 1023.08 1022.78 1021.08 1019.61 1018.25 1018.24 1017.72 1016.70 1016.34 1015.30 1014.22 1011.19 1008.67 1006.58 1004.93 1003.43 1002.26 1001.93 1001.70 1001.22 1000.37 1000.21
1032.40 1031.93 1031.57 1031.23 1030.84 1030.57 1030.27 1029.98 1029.76 1029.77 1029.54 1028.63 1028.73 1028.87 1028.33 1027.52 1027.21 1026.64 1026.31 1025.90 1025.42 1025.34 1025.37 1024.40 1023.98 1023.86 1023.64 1022.85 1021.89 1020.47 1019.90 1019.60 1018.20 1017.08 1016.65 1015.65 1012.91 1010.49 1007.93 1006.18 1004.47 1002.90 1001.82 1001.13 1000.46 1000.00 999.84
1031.94 1031.53 1031.12 1030.80 1030.44 1030.18 1029.98 1029.88 1029.69 1029.63 1029.76 1029.22 1029.56 1029.74 1029.10 1028.02 1027.21 1026.84 1026.35 1026.20 1026.05 1025.93 1025.42 1025.09 1024.89 1024.20 1023.34 1022.72 1022.54 1022.05 1021.27 1020.60 1019.41 1018.38 1017.83 1016.78 1014.22 1011.87 1008.42 1006.21 1004.32 1002.65 1000.93 1000.28 1000.00 999.54 999.11
1031.33 1030.95 1030.67 1030.35 1030.00 1029.75 1029.59 1029.54 1029.49 1029.38 1029.51 1029.60 1029.69 1029.55 1028.97 1027.57 1026.88 1026.50 1026.37 1026.37 1026.09 1025.86 1025.49 1025.11 1024.78 1024.12 1023.56 1023.38 1022.64 1021.04 1019.65 1018.84 1018.05 1016.89 1017.23 1015.89 1014.72 1013.35 1010.29 1007.73 1004.46 1000.71 1000.82 1000.14 999.69 999.19 998.99
1030.67 1030.41 1030.09 1029.75 1029.44 1029.27 1029.14 1029.13 1028.99 1028.96 1029.06 1029.14 1029.50 1029.52 1028.65 1027.56 1026.80 1026.16 1025.83 1025.58 1025.57 1025.41 1024.85 1024.53 1024.31 1023.92 1023.84 1023.36 1021.90 1019.92 1017.58 1016.15 1014.89 1014.42 1014.30 1014.39 1014.49 1013.14 1010.94 1007.78 1004.18 1001.04 999.85 999.32 998.85 998.15 998.87
1029.94 1029.72 1029.37 1029.03 1028.83 1028.67 1028.52 1028.47 1028.42 1028.35 1028.33 1028.55 1028.44 1028.60 1028.69 1027.61 1026.24 1025.82 1025.78 1025.62 1025.08 1024.47 1024.05 1023.65 1023.60 1023.62 1023.74 1022.83 1021.99 1020.47 1018.24 1015.91 1014.26 1012.56 1011.54 1012.45 1013.16 1012.49 1010.59 1008.28 1004.47 1000.87 1000.60 999.87 999.74 998.10 998.42
1029.20 1028.90 1028.63 1028.35 1028.11 1027.96 1027.80 1027.69 1027.74 1027.67 1027.58 1027.70 1027.89 1027.95 1027.80 1026.83 1025.89 1025.60 1025.11 1024.90 1025.04 1024.48 1023.98 1023.56 1022.89 1023.10 1022.93 1022.18 1021.58 1020.49 1018.74 1017.69 1015.48 1013.09 1011.03 1011.44 1012.10 1011.69 1009.80 1008.05 1004.16 1002.34 1001.32 1000.36 1000.46 999.63 998.07
1028.28 1027.99 1027.78 1027.54 1027.30 1027.08 1027.00 1026.90 1026.86 1026.82 1026.78 1027.01 1026.84 1027.03 1027.11 1026.06 1025.07 1024.84 1024.66 1024.47 1024.36 1024.21 1023.38 1022.94 1023.16 1022.54 1022.37 1021.88 1020.99 1019.91 1018.85 1017.47 1016.53 1014.96 1013.40 1012.60 1011.74 1011.15 1010.27 1007.81 1004.73 1003.15 1002.73 1002.88 1003.90 1002.61 1002.53
1027.29 1027.04 1026.74 1026.60 1026.42 1026.24 1026.03 1025.97 1025.90 1025.89 1025.91 1026.00 1025.84 1025.73 1025.92 1025.57 1024.23 1024.07 1023.92 1023.59 1022.83 1023.10 1023.27 1022.81 1022.49 1021.99 1021.57 1021.46 1020.92 1020.16 1019.67 1018.77 1017.87 1015.97 1014.39 1013.26 1013.16 1012.63 1011.73 1007.68 1004.55 1004.45 1005.44 1005.64 1005.80 1005.41 1004.71
Wind_Speed
19 20 20 22 22 22 23 23 23 23 24 23 24 25 26 26 27 26 26 25 26 24 21 18 15 13 9 7 7 6 5 2 5 4 7 9 11 11 13 8 9 14 6 3 6 8 9
20 20 22 22 22 23 23 22 23 24 25 25 25 26 26 27 29 28 28 27 26 25 22 16 10 9 6 9 3 2 6 3 5 5 4 7 5 6 8 9 14 7 7 10 11 13 16
21 20 21 21 21 21 22 23 22 22 24 25 25 26 27 28 29 29 30 29 26 24 18 7 6 6 8 11 2 5 5 4 2 4 4 3 5 9 1 7 6 11 10 10 13 16 9
21 22 22 22 21 22 22 23 24 25 23 26 26 27 27 29 30 30 30 27 24 17 5 5 7 4 8 2 6 9 7 8 7 6 6 5 4 7 9 1 7 14 13 14 13 15 12
21 20 20 21 22 23 24 24 25 25 26 26 27 28 28 28 30 30 29 25 16 4 6 9 6 4 7 2 5 1 8 7 6 4 5 4 5 9 8 13 13 15 15 20 12 13 10
21 22 22 22 23 23 24 25 26 27 28 29 29 29 30 29 30 31 30 19 3 4 6 5 3 6 7 1 1 2 4 7 5 4 7 8 7 10 13 16 19 16 21 18 14 15 14
21 20 21 22 23 24 24 24 25 26 28 30 31 30 32 30 30 30 17 4 5 7 6 8 0 6 4 6 4 7 7 10 8 7 11 10 12 17 18 19 19 12 18 19 18 12 16
20 20 19 21 22 23 24 26 27 27 28 30 32 32 32 31 29 24 8 5 6 6 11 11 17 20 14 6 5 9 8 13 11 15 12 9 17 16 9 15 17 17 16 20 11 13 13
20 20 21 22 23 24 25 26 27 27 29 31 32 33 33 30 24 5 8 8 7 2 7 4 5 8 6 12 9 10 14 14 12 15 14 19 4 3 16 16 20 22 20 19 17 10 1
18 19 21 22 24 24 25 27 27 29 30 30 31 32 30 26 5 6 3 7 9 4 6 4 4 2 6 5 8 16 14 10 7 13 13 13 17 11 9 22 19 24 22 14 14 18 13
18 18 20 21 22 24 25 26 28 29 31 32 31 32 25 11 7 3 8 10 6 5 4 4 5 4 4 8 2 11 9 11 14 11 8 7 10 17 22 19 18 19 19 18 18 19 11
20 22 20 20 22 24 25 26 28 30 31 32 33 30 20 2 3 6 12 13 5 4 6 3 3 1 5 10 3 5 11 7 7 14 14 16 2 9 16 18 11 12 14 17 15 15 16
20 20 21 21 22 24 25 26 28 29 30 32 34 24 8 6 9 15 10 5 4 4 3 4 5 5 8 6 9 8 12 19 13 12 16 17 19 16 10 11 17 17 18 12 14 15 21
19 20 21 20 21 23 25 26 27 28 29 31 34 13 5 8 10 9 5 5 5 3 5 7 7 15 7 3 8 13 12 15 20 16 12 11 13 21 18 23 15 24 23 15 22 21 22
19 19 20 21 21 23 25 27 28 28 31 32 24 4 8 13 12 7 6 2 4 6 9 12 15 9 10 4 6 4 16 17 16 18 14 8 11 3 13 18 20 19 24 27 23 22 18
20 20 19 20 21 21 23 25 27 29 31 32 8 4 11 20 10 6 3 1 1 9 14 8 5 4 7 5 7 5 10 8 13 17 19 13 16 11 8 14 22 26 22 22 17 21 25
21 21 19 20 20 20 22 23 25 27 30 27 5 4 13 20 6 1 2 3 4 11 13 7 6 9 8 7 8 8 6 11 13 10 13 21 17 13 11 17 20 16 19 18 20 18 19
21 21 19 19 19 20 20 21 22 24 28 14 6 3 13 14 5 4 4 5 7 9 9 6 7 10 8 9 10 7 5 10 18 14 8 11 10 17 21 15 15 22 25 25 15 26 20
20 20 20 18 18 18 19 19 20 20 22 10 6 5 8 10 5 6 6 2 6 11 10 8 9 7 10 8 8 9 7 8 21 15 14 10 9 16 16 20 16 16 20 22 25 19 22
21 20 19 17 17 17 17 17 17 17 18 7 5 5 5 7 6 6 7 5 7 5 3 9 6 3 12 7 3 9 12 7 21 12 13 10 10 14 16 16 15 19 21 23 21 17 21
21 19 19 18 17 16 15 15 14 14 14 6 5 4 4 5 5 8 7 5 8 7 6 7 3 10 10 7 15 11 7 20 10 6 12 10 10 15 17 22 21 16 20 23 23 28 24
21 21 19 18 17 15 14 14 13 10 9 3 3 4 3 5 7 7 4 5 6 8 8 9 11 13 12 13 15 21 17 14 12 6 14 11 7 15 18 19 21 23 23 20 26 28 26
21 21 19 19 17 15 14 11 11 8 3 2 1 1 4 3 6 6 4 6 10 11 5 6 12 15 16 15 15 19 20 20 21 22 17 11 7 9 12 15 14 22 26 26 25 23 24
21 22 20 20 18 16 13 12 11 7 1 1 2 3 4 6 7 8 12 14 13 12 13 14 13 15 12 16 19 21 23 24 25 26 20 15 13 7 10 12 17 20 18 25 26 25 24
22 22 21 20 19 17 14 14 12 11 4 4 3 3 3 7 10 13 14 13 13 14 15 15 15 13 11 15 13 12 8 13 24 28 26 26 18 11 9 13 19 18 19 19 24 27 23
23 22 22 20 19 19 16 14 15 14 14 5 6 6 3 6 9 9 14 16 15 14 15 16 11 10 12 10 8 11 7 11 7 6 23 25 23 15 11 15 18 15 22 6 9 18 17
24 23 22 21 20 19 18 16 16 16 17 9 4 10 5 7 11 12 10 13 12 13 11 15 13 8 10 7 9 12 15 15 9 12 4 10 15 21 19 16 16 10 12 7 15 7 12
24 23 22 21 21 20 18 18 17 18 17 11 6 9 6 8 13 18 19 18 13 11 13 13 8 9 7 8 6 6 7 6 10 18 22 17 6 13 18 21 25 9 11 14 14 14 22
24 24 22 22 21 22 20 19 19 19 19 15 7 9 10 10 11 17 20 23 25 26 18 17 15 15 4 6 6 5 8 8 13 12 14 13 1 7 7 10 11 12 13 8 15 16 21
Wind_Direction
30 28 24 26 19 15 13 8 4 2 356 351 347 348 345 342 338 332 327 323 320 318 313 306 303 311 299 242 258 47 353 151 222 229 235 238 233 229 233 230 196 222 155 147 156 151 138
39 35 28 23 16 11 11 6 1 2 353 349 347 347 344 341 336 332 326 322 319 316 309 293 277 294 262 258 59 24 347 255 255 239 216 228 278 270 273 243 224 187 162 136 153 145 144
29 26 27 19 13 8 7 357 2 357 354 350 347 344 343 339 334 330 325 320 316 314 308 277 215 231 249 259 346 288 304 257 259 266 252 224 267 247 235 221 160 151 152 151 170 160 152
25 22 19 20 16 7 7 360 1 356 355 348 346 345 341 338 333 328 322 317 316 309 331 157 178 223 263 176 307 267 244 236 238 243 265 288 257 268 248 22 185 187 186 191 172 179 164
25 17 20 13 11 10 3 6 358 359 354 348 346 344 341 336 330 327 323 315 312 329 129 149 186 258 268 163 239 321 225 224 200 214 233 276 243 242 195 214 200 202 208 213 157 199 161
18 19 10 13 11 5 6 3 0 355 351 347 345 342 339 334 331 328 323 307 170 181 172 219 247 256 233 132 327 284 199 232 205 193 199 217 228 229 220 213 217 204 228 196 192 182 197
16 14 11 10 7 7 4 4 1 357 351 345 343 341 338 333 330 327 324 237 224 191 223 252 17 293 278 334 246 200 180 192 202 223 215 205 227 221 221 226 246 274 211 206 204 161 188
15 12 11 4 6 3 2 1 357 355 351 347 343 339 337 332 329 324 301 56 38 335 297 245 250 257 266 311 285 212 186 194 203 222 206 208 230 239 254 239 234 239 238 218 149 180 201
9 6 5 3 1 1 359 358 355 354 349 345 341 338 336 328 323 308 46 50 340 268 265 264 230 262 232 205 228 227 200 205 211 220 213 236 214 273 237 232 228 231 233 228 184 167 167
359 358 358 358 358 358 357 354 354 352 348 343 339 338 335 329 282 347 97 352 338 198 273 150 199 175 177 208 224 222 213 202 210 226 226 250 245 224 232 237 230 230 224 255 213 188 197
352 349 352 353 354 352 353 353 351 349 347 341 340 337 338 358 328 332 351 329 332 225 304 72 115 98 157 215 12 181 195 209 228 201 203 204 215 221 232 236 232 248 237 215 233 212 166
353 355 353 351 351 350 349 351 351 348 345 340 341 341 334 318 287 350 324 311 222 233 237 92 91 193 196 221 223 129 200 229 263 240 226 263 194 262 259 230 243 244 237 219 213 217 221
353 352 349 353 349 348 348 349 349 347 345 341 341 342 352 341 336 320 311 249 217 209 36 41 356 349 311 261 223 218 189 203 213 211 230 231 239 233 234 233 218 220 210 193 207 204 226
349 351 348 349 348 348 348 349 348 345 344 342 338 334 21 23 332 323 278 215 228 28 353 357 323 307 263 262 228 224 228 224 219 231 273 232 228 215 214 230 213 209 216 216 215 213 229
347 351 349 349 350 348 348 348 348 347 344 343 331 338 7 353 338 307 257 222 7 8 345 327 312 280 262 256 282 249 234 242 236 215 232 229 240 235 228 212 226 208 223 223 232 235 239
349 346 347 347 348 349 348 347 349 348 344 343 329 304 18 342 331 277 247 86 67 30 335 317 289 347 297 340 303 241 230 26 268 241 234 256 263 237 240 224 225 236 218 223 236 239 235
346 345 345 345 346 349 348 348 350 350 346 340 332 306 4 341 285 9 70 30 355 339 351 324 325 304 304 321 319 283 286 71 358 322 297 242 245 257 228 213 219 212 234 224 233 227 235
345 343 343 341 345 346 346 347 353 353 349 350 328 14 356 329 48 26 35 357 339 341 356 326 303 323 321 318 294 284 309 21 0 344 303 268 238 237 240 250 236 233 215 221 219 223 240
340 339 337 338 340 340 342 347 355 357 358 336 0 327 12 353 50 29 344 345 352 358 12 8 353 358 350 288 296 267 326 36 7 352 354 347 234 243 241 241 224 237 234 227 220 240 244
331 332 334 328 329 334 338 347 354 359 355 337 346 348 20 32 33 6 353 339 346 29 15 342 6 15 338 299 200 295 306 336 339 350 335 301 257 254 238 242 222 217 234 229 231 228 240
322 324 328 325 323 326 330 337 353 4 352 315 5 40 4 354 10 354 351 326 331 0 337 332 192 22 352 297 314 272 331 321 298 356 359 6 280 273 276 276 273 254 228 230 230 235 229
315 320 323 321 317 314 319 329 339 16 330 1 6 341 332 308 311 334 354 355 357 350 318 313 307 331 307 287 284 294 306 306 295 309 341 336 283 311 283 262 254 257 252 248 227 235 238
308 312 319 319 315 309 311 315 320 356 335 334 115 187 279 332 308 311 335 326 324 319 285 325 327 312 304 305 320 302 293 278 271 279 288 279 280 314 273 268 263 242 234 242 242 245 242
302 307 313 314 315 306 300 296 297 308 283 236 249 287 246 286 282 284 290 298 298 301 289 297 301 302 322 318 297 279 254 251 251 251 242 247 252 262 282 286 238 241 233 236 246 252 243
299 304 307 305 311 305 296 284 281 280 222 242 164 223 258 276 290 284 278 280 272 273 268 279 295 292 310 302 295 311 274 254 238 236 231 222 229 246 249 252 271 260 227 242 235 245 243
297 299 300 299 301 303 291 277 272 267 265 230 226 222 249 282 265 320 291 286 287 287 286 279 259 283 291 282 278 258 268 314 273 305 216 220 215 219 220 234 241 251 246 253 270 254 246
294 295 295 293 294 295 292 280 267 265 260 257 243 210 240 255 263 266 283 303 291 272 267 281 285 271 274 261 259 257 260 264 265 258 261 195 196 221 220 237 260 261 296 252 207 269 255
291 292 290 289 290 290 289 281 271 263 260 253 256 208 230 266 269 266 272 274 263 249 264 271 275 232 257 249 257 261 266 273 280 266 273 277 245 206 231 227 238 222 250 248 6 358 11
286 286 288 287 283 286 285 279 271 263 255 248 249 234 230 245 268 279 274 264 248 253 261 257 253 260 242 253 248 264 264 284 289 274 289 251 265 316 299 229 238 62 18 52 19 4 358